Change the Weather History Date:

Sunday, August 24, 2014

  Actual Average Record
Temperature  
Mean Temperature 89 °F 82 °F  
Max Temperature 100 °F 91 °F 100 °F (1943)
Min Temperature 77 °F 72 °F 53 °F (1891)
Degree Days  
Heating Degree Days 0 0  
Month to date heating degree days 0 0  
Since 1 June heating degree days 0 0  
Since 1 July heating degree days 0 0  
Cooling Degree Days 24 16  
Month to date cooling degree days 420 419  
Year to date cooling degree days 1575 1727  
Since 1 June cooling degree days 1264 1406  
Growing Degree Days 38 (Base 50)    
Moisture  
Dew Point 71 °F    
Average Humidity 59    
Maximum Humidity 79    
Minimum Humidity 39    
Precipitation  
Precipitation T in 0.07 in 2.85 in (1979)
Month to date precipitation 0.93 2.35  
Year to date precipitation 42.85 34.85  
Snow  
Snow 0.00 in 0.00 in - ()
Month to date snowfall 0.0 0.0  
Since 1 June snowfall 0.0 0.0  
Since 1 July snowfall 0.0 0.0  
Snow Depth 0.00 in    
Sea Level Pressure  
Sea Level Pressure 29.93 in    
Wind  
Wind Speed 5 mph (SSE)    
Max Wind Speed 16 mph    
Max Gust Speed 20 mph    
Visibility 10 miles    
Events Rain , Thunderstorm    
T = Trace of Precipitation, MM = Missing Value Source: NWS Daily Summary

Daily Weather History Graph

Daily Weather History Graph

Search for Another Location

Airport or City:

Trip Planner

Search our weather history database for the weather conditions in past years. The results will help you decide how hot, cold, wet, or windy it might be!

Date:

Astronomy

Aug. 24, 2014 Rise Set
Actual Time 6:26 AM CDT 7:37 PM CDT
Civil Twilight 6:00 AM CDT 8:03 PM CDT
Nautical Twilight 5:29 AM CDT 8:34 PM CDT
Astronomical Twilight 4:56 AM CDT 9:07 PM CDT
Moon 5:37 AM CDT (8/24) 6:56 PM CDT (8/24)
Length of Visible Light 14h 03m
Length of Day
13h 10m
Waning Crescent, 1% of the Moon is Illuminated
Aug 24
Waning Crescent
Aug 25
New
Sep 2
First Quarter
Sep 8
Full
Sep 15
Last Quarter

Hourly Weather History & Observations

Time (CDT) Temp. Heat Index Dew Point Humidity Pressure Visibility Wind Dir Wind Speed Gust Speed Precip Events Conditions
12:54 AM 82.0 °F 87.4 °F 73.0 °F 74% 29.93 in 10.0 mi Calm Calm - N/A   Partly Cloudy
1:54 AM 81.0 °F 85.2 °F 72.0 °F 74% 29.93 in 10.0 mi SW 3.5 mph - N/A   Partly Cloudy
2:54 AM 80.1 °F 83.8 °F 72.0 °F 76% 29.92 in 10.0 mi SW 3.5 mph - N/A   Partly Cloudy
3:54 AM 82.9 °F 88.8 °F 73.0 °F 72% 29.95 in 10.0 mi East 8.1 mph - N/A   Overcast
4:54 AM 81.0 °F 85.8 °F 73.0 °F 77% 29.94 in 10.0 mi SE 5.8 mph - N/A   Clear
5:54 AM 79.0 °F - 72.0 °F 79% 29.94 in 10.0 mi SSE 4.6 mph - N/A   Clear
6:54 AM 79.0 °F - 72.0 °F 79% 29.96 in 10.0 mi SSE 4.6 mph - N/A   Partly Cloudy
7:54 AM 81.0 °F 85.2 °F 72.0 °F 74% 29.98 in 10.0 mi SSE 4.6 mph - N/A   Mostly Cloudy
8:54 AM 84.9 °F 91.4 °F 73.0 °F 67% 29.97 in 10.0 mi SSW 4.6 mph - N/A   Partly Cloudy
9:54 AM 89.1 °F 98.0 °F 73.9 °F 61% 29.97 in 10.0 mi South 4.6 mph - N/A   Partly Cloudy
10:54 AM 91.9 °F 100.7 °F 73.0 °F 54% 29.97 in 10.0 mi WNW 4.6 mph - N/A   Partly Cloudy
11:54 AM 93.9 °F 102.1 °F 72.0 °F 49% 29.97 in 10.0 mi Variable 4.6 mph - N/A   Scattered Clouds
12:54 PM 98.1 °F 106.5 °F 71.1 °F 42% 29.95 in 10.0 mi NNW 8.1 mph - N/A   Scattered Clouds
1:54 PM 98.1 °F 106.5 °F 71.1 °F 42% 29.94 in 10.0 mi WSW 3.5 mph - N/A   Scattered Clouds
2:54 PM 98.1 °F 104.4 °F 69.1 °F 39% 29.91 in 10.0 mi Variable 3.5 mph - N/A   Scattered Clouds
3:54 PM 97.0 °F 102.8 °F 69.1 °F 40% 29.89 in 10.0 mi NNE 5.8 mph - N/A   Scattered Clouds
4:26 PM 96.8 °F 103.1 °F 69.8 °F 41% 29.89 in 10.0 mi NE 8.1 mph 16.1 mph N/A Thunderstorm Thunderstorm
4:54 PM 91.0 °F 97.6 °F 71.1 °F 52% 29.88 in 10.0 mi South 5.8 mph - N/A Thunderstorm Thunderstorm
5:46 PM 89.6 °F 94.7 °F 69.8 °F 52% 29.91 in 9.0 mi SSW 8.1 mph - 0.00 in Rain Light Rain
5:54 PM 90.0 °F 96.4 °F 71.1 °F 54% 29.89 in 9.0 mi SSW 6.9 mph - 0.00 in Rain Light Rain
6:54 PM 93.9 °F 100.8 °F 71.1 °F 47% 29.90 in 10.0 mi Calm Calm - N/A   Mostly Cloudy
7:54 PM 90.0 °F 97.9 °F 73.0 °F 57% 29.92 in 10.0 mi East 5.8 mph - N/A   Scattered Clouds
8:54 PM 87.1 °F 91.3 °F 69.1 °F 55% 29.92 in 10.0 mi East 10.4 mph - N/A   Partly Cloudy
9:54 PM 84.9 °F 88.2 °F 68.0 °F 57% 29.94 in 10.0 mi East 5.8 mph - N/A   Partly Cloudy
10:54 PM 84.0 °F 87.8 °F 69.1 °F 61% 29.94 in 10.0 mi East 4.6 mph - N/A   Partly Cloudy
11:54 PM 82.9 °F 86.5 °F 69.1 °F 63% 29.95 in 10.0 mi East 4.6 mph - N/A   Partly Cloudy